Voltar ao catálogo

DELTA 1 DEB

AtivoSSO
NORAD 7059·DEBRIS·🇺🇸 United States

Lançado Nov 6, 1973 de Vandenberg Space Force Base

Loading…

Próximas Passagens (próximas 24 horas)

TLE

AtualizadoSource: Space-Track

Época: Sep 14, 2026, 05:19 UTC

1 07059U 73086BB  26257.22180770  .00000456  00000-0  42415-2 0  9997
2 07059 102.0176   7.8970 0108363 145.2089 329.9228 12.28532398360334

Acompanhe DELTA 1 DEB em tempo real com AllMySat

Download on the App Store